Regional Weather Roundup
Issued by NWS Goodland, KS

Home | Current Version | Previous Version | Graphics & Text | Print | Product List | Glossary On
Versions: 1 2 3 4 5 6 7 8 9 10 11 12 13 14 15 16 17 18 19 20 21 22 23 24 25 26 27 28 29 30 31 32 33 34 35 36 37 38 39 40 41 42 43 44 45 46 47 48 49 50
000
ASUS43 KGLD 200359
RWRGLD

GOODLAND FORECAST AREA HOURLY WEATHER ROUNDUP
NATIONAL WEATHER SERVICE GOODLAND KS
900 PM MST FRI DEC 19 2014

...OFFICIAL OBSERVATIONS...

CITY           SKY/WX    TMP DP  RH WIND       PRES   REMARKS
GOODLAND KS    CLEAR     34  29  82 SW13      30.06R
HILL CITY KS   CLEAR     35  27  72 W7        30.07S
IMPERIAL NEB   CLEAR     29  22  75 W8        30.03S
MCCOOK NEB     CLEAR     27  22  81 SW9       30.04R
AKRON CO       MOCLDY    30  22  72 S12       30.02S
BURLINGTON CO  CLEAR     29  25  85 SW8       30.05F
LIMON CO       MOCLDY    23  20  88 CALM      30.05S
$$

...UNOFFICIAL OBSERVATIONS...

CITY           SKY/WX    TMP DP  RH WIND       PRES   REMARKS
COLBY KS       CLEAR     28  27  93 SW8       30.06S
GOVE KS          N/A     33  32  96 MISG        N/A
NORTON KS      CLEAR     28  23  80 SW8       30.03S
SHARON SPRINGS   N/A     30  27  88 SW10        N/A
TRIBUNE KS     CLEAR     32  30  93 SW12      30.08F
KIT CARSON CO    N/A     26  22  85 MISG        N/A
YUMA CO          N/A     24  19  81 SW7         N/A
$$


USA.gov is the U.S. government's official web portal to all federal, state and local government web resources and services.